This demonstration page uses our WeatherBlox Daily Observations layout. Learn more.

Left ArrowRight Arrow

Hourly Observations for May 11, 2022

Temp ( °F °C ) Dew Point ( °F °C ) Humidity (%) Winds ( mph kmh ) Pressure ( in mb ) Visibility ( mi km ) Precip ( " mm )
12:53 am 00:53 Mostly Cloudy 76 24.4 72 22.2 88 88 SSE 15 24 29.91 1013 10 16 0.00 0.00
1:53 am 01:53 Cloudy 75 23.9 71 21.7 88 88 S 16 26 29.93 1014 8 13 0.00 0.00
2:53 am 02:53 Cloudy 76 24.4 71 21.7 85 85 S 14 22 29.92 1013 8 13 0.00 0.00
3:38 am 03:38 Cloudy 75 23.9 71 21.7 88 88 S 18 30 29.92 1013 8 13 0.00 0.00
3:53 am 03:53 Cloudy 75 23.9 71 21.7 88 88 S 18 30 29.93 1014 8 13 0.00 0.00
4:53 am 04:53 Mostly Cloudy 73 22.8 64 17.8 74 74 SSW 10 17 29.93 1013 10 16 0.00 0.00
5:53 am 05:53 Mostly Cloudy 70 21.1 61 16.1 73 73 S 12 19 29.96 1015 10 16 0.00 0.00
6:53 am 06:53 Mostly Cloudy 71 21.7 60 15.6 68 68 ESE 12 19 29.87 1012 10 16 0.00 0.00
7:53 am 07:53 Mostly Cloudy 72 22.2 61 16.1 68 68 ESE 12 19 29.90 1013 10 16 0.00 0.00
8:53 am 08:53 Mostly Cloudy 75 23.9 62 16.7 64 64 S 8 13 29.96 1014 10 16 0.00 0.00
9:53 am 09:53 Partly Cloudy 78 25.6 62 16.7 58 58 S 23 37 29.98 1015 10 16 0.00 0.00
10:53 am 10:53 Partly Cloudy 80 26.7 64 17.8 58 58 S 20 31 29.98 1015 10 16 0.00 0.00
11:53 am 11:53 Mostly Cloudy 81 27.2 66 18.9 61 61 S 26 43 30.00 1016 10 16 0.00 0.00
12:53 pm 12:53 Partly Cloudy 83 28.3 66 18.9 57 57 S 21 33 29.98 1015 10 16 0.00 0.00
1:53 pm 13:53 Mostly Cloudy 85 29.4 68 20 57 57 S 21 33 29.96 1014 10 16 0.00 0.00
2:53 pm 14:53 Partly Cloudy 87 30.6 68 20 53 53 S 20 31 29.93 1014 10 16 0.00 0.00
3:53 pm 15:53 Mostly Sunny 88 31.1 68 20 52 52 SSE 17 28 29.91 1013 10 16 0.00 0.00
4:53 pm 16:53 Mostly Sunny 88 31.1 67 19.4 50 50 S 21 33 29.90 1012 10 16 0.00 0.00
5:53 pm 17:53 Mostly Cloudy 87 30.6 69 20.6 55 55 SSE 18 30 29.88 1012 10 16 0.00 0.00
6:53 pm 18:53 Mostly Cloudy 86 30 69 20.6 57 57 SSE 17 28 29.87 1012 10 16 0.00 0.00
7:53 pm 19:53 Mostly Cloudy 84 28.9 69 20.6 61 61 SSE 22 35 29.88 1012 10 16 0.00 0.00
8:53 pm 20:53 Mostly Cloudy 80 26.7 69 20.6 69 69 S 16 26 29.90 1012 10 16 0.00 0.00
9:53 pm 21:53 Mostly Cloudy 78 25.6 67 19.4 69 69 SSE 14 22 29.93 1013 10 16 0.00 0.00
10:53 pm 22:53 Partly Cloudy 76 24.4 68 20 77 77 SSE 16 26 29.92 1013 10 16 0.00 0.00
11:53 pm 23:53 Partly Cloudy 75 23.9 67 19.4 76 76 SSE 17 28 29.92 1013 10 16 0.00 0.00

Powered by AerisWeather